| time (UTC) | temp F | wind direction | speed MPH | gust MPH | rain 1hr in | rain 24hr in | rain mn in | humidity % | barometer mb |
| 20260508175053 | 59 | 12 | 10.0 | 13.0 | 0.00 | 0.00 | 0.00 | 30 | 977.7 |
| 20260508174553 | 59 | 60 | 8.0 | 13.0 | 0.00 | 0.00 | 0.00 | 30 | 977.7 |
| 20260508174053 | 59 | 0 | 7.0 | 13.0 | 0.00 | 0.00 | 0.00 | 30 | 977.7 |
| 20260508173552 | 59 | 4 | 14.0 | 14.0 | 0.00 | 0.00 | 0.00 | 31 | 977.6 |
| 20260508173052 | 59 | 332 | 9.0 | 8.0 | 0.00 | 0.00 | 0.00 | 31 | 977.6 |
| 20260508172552 | 59 | 12 | 8.0 | 14.0 | 0.00 | 0.00 | 0.00 | 32 | 977.3 |
| 20260508172053 | 59 | 46 | 9.0 | 13.0 | 0.00 | 0.00 | 0.00 | 32 | 977.3 |
| 20260508171552 | 59 | 27 | 12.0 | 15.0 | 0.00 | 0.00 | 0.00 | 32 | 977.2 |
| 20260508171052 | 59 | 16 | 9.0 | 14.0 | 0.00 | 0.00 | 0.00 | 33 | 977.2 |
| 20260508170552 | 59 | 22 | 9.0 | 12.0 | 0.00 | 0.00 | 0.00 | 33 | 977.2 |
| 20260508170052 | 59 | 12 | 8.0 | 10.0 | 0.00 | 0.00 | 0.00 | 33 | 977.0 |
| 20260508165552 | 60 | 338 | 8.0 | 13.0 | 0.00 | 0.00 | 0.00 | 33 | 977.0 |
| 20260508165053 | 60 | 320 | 8.0 | 10.0 | 0.00 | 0.00 | 0.00 | 34 | 977.0 |
| 20260508164553 | 60 | 9 | 6.0 | 7.0 | 0.00 | 0.00 | 0.00 | 35 | 977.0 |
| 20260508164053 | 60 | 17 | 9.0 | 10.0 | 0.00 | 0.00 | 0.00 | 36 | 977.0 |
| 20260508163553 | 61 | 16 | 7.0 | 10.0 | 0.00 | 0.00 | 0.00 | 35 | 976.7 |
| 20260508163053 | 61 | 27 | 8.0 | 8.0 | 0.00 | 0.00 | 0.00 | 36 | 976.7 |
| 20260508162552 | 61 | 26 | 7.0 | 9.0 | 0.00 | 0.00 | 0.00 | 36 | 976.4 |
| 20260508162052 | 62 | 32 | 8.0 | 13.0 | 0.00 | 0.00 | 0.00 | 36 | 976.4 |
| 20260508161552 | 62 | 48 | 14.0 | 20.0 | 0.00 | 0.00 | 0.00 | 37 | 976.5 |
| 20260508161053 | 62 | 29 | 9.0 | 13.0 | 0.00 | 0.00 | 0.00 | 39 | 976.6 |
| 20260508160552 | 63 | 350 | 9.0 | 12.0 | 0.00 | 0.00 | 0.00 | 39 | 976.6 |
| 20260508155552 | 64 | 12 | 15.0 | 18.0 | 0.00 | 0.00 | 0.00 | 40 | 976.4 |
| 20260508155052 | 64 | 350 | 10.0 | 13.0 | 0.00 | 0.00 | 0.00 | 40 | 976.4 |
| 20260508154552 | 64 | 340 | 12.0 | 14.0 | 0.00 | 0.00 | 0.00 | 42 | 976.4 |
| 20260508154051 | 64 | 63 | 13.0 | 15.0 | 0.00 | 0.00 | 0.00 | 43 | 976.4 |
| 20260508153552 | 64 | 315 | 10.0 | 12.0 | 0.00 | 0.00 | 0.00 | 44 | 976.3 |
| 20260508153052 | 64 | 5 | 10.0 | 10.0 | 0.00 | 0.00 | 0.00 | 44 | 976.3 |
| 20260508152552 | 64 | 300 | 6.0 | 6.0 | 0.00 | 0.00 | 0.00 | 46 | 976.2 |
| 20260508152052 | 63 | 253 | 6.0 | 6.0 | 0.00 | 0.00 | 0.00 | 48 | 976.2 |
| 20260508151551 | 63 | 158 | 2.0 | 2.0 | 0.00 | 0.00 | 0.00 | 49 | 976.2 |
| 20260508151053 | 64 | 176 | 2.0 | 1.0 | 0.00 | 0.00 | 0.00 | 48 | 976.2 |
| 20260508150552 | 65 | 4 | 2.0 | 2.0 | 0.00 | 0.00 | 0.00 | 47 | 976.2 |
| 20260508150052 | 65 | 347 | 9.0 | 12.0 | 0.00 | 0.00 | 0.00 | 48 | 976.1 |
| 20260508145551 | 65 | 25 | 7.0 | 8.0 | 0.00 | 0.00 | 0.00 | 48 | 976.1 |
| 20260508145053 | 65 | 308 | 3.0 | 3.0 | 0.00 | 0.00 | 0.00 | 48 | 975.9 |
| 20260508144553 | 65 | 358 | 6.0 | 6.0 | 0.00 | 0.00 | 0.00 | 48 | 975.9 |
| 20260508144053 | 65 | 351 | 6.0 | 7.0 | 0.00 | 0.00 | 0.00 | 48 | 975.9 |
| 20260508143553 | 66 | 356 | 5.0 | 5.0 | 0.00 | 0.00 | 0.00 | 48 | 975.9 |
| 20260508143052 | 66 | 126 | 3.0 | 2.0 | 0.00 | 0.00 | 0.00 | 48 | 975.9 |
| 20260508142552 | 65 | 324 | 5.0 | 6.0 | 0.00 | 0.00 | 0.00 | 57 | 975.5 |
| 20260508142052 | 66 | 239 | 2.0 | 2.0 | 0.00 | 0.00 | 0.00 | 52 | 975.5 |
| 20260508141552 | 66 | 353 | 2.0 | 3.0 | 0.00 | 0.00 | 0.00 | 50 | 975.5 |
| 20260508141052 | 66 | 95 | 2.0 | 1.0 | 0.00 | 0.00 | 0.00 | 49 | 975.4 |
| 20260508140553 | 66 | 339 | 5.0 | 6.0 | 0.00 | 0.00 | 0.00 | 49 | 975.4 |
| 20260508140053 | 66 | 344 | 2.0 | 3.0 | 0.00 | 0.00 | 0.00 | 50 | 975.2 |
| 20260508135553 | 67 | 65 | 3.0 | 5.0 | 0.00 | 0.00 | 0.00 | 50 | 975.2 |
| 20260508135053 | 66 | 270 | 8.0 | 9.0 | 0.00 | 0.00 | 0.00 | 52 | 975.3 |
| 20260508134552 | 66 | 280 | 3.0 | 3.0 | 0.00 | 0.00 | 0.00 | 51 | 975.3 |
| 20260508134052 | 67 | 343 | 2.0 | 2.0 | 0.00 | 0.00 | 0.00 | 51 | 975.3 |
| 20260508133552 | 67 | 210 | 2.0 | 3.0 | 0.00 | 0.00 | 0.00 | 51 | 975.1 |
| 20260508133052 | 67 | 220 | 2.0 | 2.0 | 0.00 | 0.00 | 0.00 | 53 | 975.1 |
| 20260508132551 | 68 | 91 | 2.0 | 2.0 | 0.00 | 0.00 | 0.00 | 51 | 974.8 |
| 20260508132053 | 68 | 221 | 2.0 | 2.0 | 0.00 | 0.00 | 0.00 | 53 | 974.8 |
| 20260508131553 | 68 | 343 | 6.0 | 7.0 | 0.00 | 0.00 | 0.00 | 52 | 974.9 |
| 20260508131053 | 68 | 348 | 6.0 | 7.0 | 0.00 | 0.00 | 0.00 | 57 | 975.0 |
| 20260508130553 | 68 | 288 | 3.0 | 5.0 | 0.00 | 0.00 | 0.00 | 58 | 975.0 |
| 20260508130053 | 68 | 341 | 6.0 | 6.0 | 0.00 | 0.00 | 0.00 | 58 | 974.7 |
| 20260508125552 | 68 | 314 | 2.0 | 3.0 | 0.00 | 0.00 | 0.00 | 58 | 974.7 |
| 20260508125052 | 68 | 293 | 2.0 | 2.0 | 0.00 | 0.00 | 0.00 | 58 | 974.8 |
| 20260508124552 | 68 | 301 | 2.0 | 3.0 | 0.00 | 0.00 | 0.00 | 58 | 974.8 |
| 20260508124052 | 68 | 256 | 5.0 | 5.0 | 0.00 | 0.00 | 0.00 | 58 | 974.8 |
| 20260508123553 | 69 | 279 | 2.0 | 1.0 | 0.00 | 0.00 | 0.00 | 57 | 974.6 |
| 20260508123053 | 69 | 206 | 3.0 | 3.0 | 0.00 | 0.00 | 0.00 | 58 | 974.6 |
| 20260508122553 | 69 | 259 | 2.0 | 6.0 | 0.00 | 0.00 | 0.00 | 57 | 974.5 |
| 20260508122052 | 70 | 209 | 5.0 | 6.0 | 0.00 | 0.00 | 0.00 | 56 | 974.5 |
| 20260508121552 | 70 | 202 | 3.0 | 5.0 | 0.00 | 0.00 | 0.00 | 58 | 974.5 |
| 20260508121052 | 70 | 205 | 3.0 | 3.0 | 0.00 | 0.00 | 0.00 | 58 | 974.6 |
| 20260508120552 | 71 | 283 | 5.0 | 6.0 | 0.00 | 0.00 | 0.00 | 56 | 974.6 |
| 20260508120052 | 70 | 232 | 7.0 | 10.0 | 0.00 | 0.00 | 0.00 | 57 | 974.5 |
| 20260508115551 | 70 | 194 | 6.0 | 7.0 | 0.00 | 0.00 | 0.00 | 58 | 974.5 |
| 20260508115053 | 71 | 262 | 7.0 | 9.0 | 0.00 | 0.00 | 0.00 | 59 | 974.2 |
| 20260508114553 | 71 | 318 | 10.0 | 12.0 | 0.00 | 0.00 | 0.00 | 57 | 974.2 |
| 20260508114053 | 70 | 270 | 9.0 | 10.0 | 0.00 | 0.00 | 0.00 | 61 | 974.2 |
| 20260508113552 | 70 | 272 | 6.0 | 6.0 | 0.00 | 0.00 | 0.00 | 62 | 973.9 |
| 20260508113052 | 70 | 260 | 6.0 | 7.0 | 0.00 | 0.00 | 0.00 | 62 | 973.9 |
| 20260508112552 | 70 | 270 | 8.0 | 9.0 | 0.00 | 0.00 | 0.00 | 62 | 973.6 |
| 20260508112052 | 70 | 283 | 7.0 | 10.0 | 0.00 | 0.00 | 0.00 | 62 | 973.6 |
| 20260508111552 | 70 | 318 | 6.0 | 8.0 | 0.00 | 0.00 | 0.00 | 61 | 973.5 |
| 20260508111052 | 70 | 289 | 7.0 | 9.0 | 0.00 | 0.00 | 0.00 | 61 | 973.5 |
| 20260508110551 | 71 | 250 | 3.0 | 5.0 | 0.00 | 0.00 | 0.00 | 59 | 973.5 |
| 20260508110053 | 72 | 305 | 3.0 | 5.0 | 0.00 | 0.00 | 0.00 | 51 | 973.2 |
| 20260508105553 | 71 | 270 | 3.0 | 6.0 | 0.00 | 0.00 | 0.00 | 47 | 973.2 |
| 20260508105053 | 71 | 158 | 3.0 | 3.0 | 0.00 | 0.00 | 0.00 | 48 | 973.2 |
| 20260508104553 | 71 | 187 | 5.0 | 6.0 | 0.00 | 0.00 | 0.00 | 55 | 973.2 |
| 20260508104052 | 71 | 26 | 3.0 | 5.0 | 0.00 | 0.00 | 0.00 | 55 | 973.2 |
| 20260508103552 | 71 | 267 | 3.0 | 5.0 | 0.00 | 0.00 | 0.00 | 53 | 972.9 |
| 20260508103052 | 71 | 250 | 3.0 | 5.0 | 0.00 | 0.00 | 0.00 | 55 | 972.9 |
| 20260508102552 | 71 | 254 | 3.0 | 6.0 | 0.00 | 0.00 | 0.00 | 58 | 972.9 |
| 20260508102052 | 71 | 286 | 5.0 | 6.0 | 0.00 | 0.00 | 0.00 | 61 | 972.9 |
| 20260508101551 | 71 | 321 | 7.0 | 6.0 | 0.00 | 0.00 | 0.00 | 61 | 972.8 |
| 20260508101053 | 72 | 303 | 7.0 | 7.0 | 0.00 | 0.00 | 0.00 | 58 | 972.8 |
| 20260508100553 | 73 | 270 | 8.0 | 8.0 | 0.00 | 0.00 | 0.00 | 55 | 972.8 |
| 20260508100053 | 74 | 104 | 6.0 | 6.0 | 0.00 | 0.00 | 0.00 | 43 | 972.6 |
| 20260508095553 | 74 | 167 | 7.0 | 7.0 | 0.00 | 0.00 | 0.00 | 44 | 972.6 |
| 20260508095052 | 73 | 234 | 2.0 | 3.0 | 0.00 | 0.00 | 0.00 | 52 | 972.6 |
| 20260508094552 | 73 | 135 | 5.0 | 5.0 | 0.00 | 0.00 | 0.00 | 52 | 972.6 |
| 20260508094052 | 74 | 172 | 5.0 | 6.0 | 0.00 | 0.00 | 0.00 | 45 | 972.6 |
| 20260508093552 | 74 | 185 | 5.0 | 5.0 | 0.00 | 0.00 | 0.00 | 45 | 972.7 |
| 20260508093052 | 75 | 213 | 5.0 | 6.0 | 0.00 | 0.00 | 0.00 | 45 | 972.7 |
| 20260508092552 | 75 | 202 | 6.0 | 7.0 | 0.00 | 0.00 | 0.00 | 45 | 972.6 |
| 20260508092053 | 75 | 188 | 5.0 | 6.0 | 0.00 | 0.00 | 0.00 | 47 | 972.6 |
| 20260508091553 | 75 | 168 | 8.0 | 9.0 | 0.00 | 0.00 | 0.00 | 45 | 972.5 |
| 20260508091053 | 76 | 194 | 10.0 | 12.0 | 0.00 | 0.00 | 0.00 | 45 | 972.5 |
| 20260508090553 | 76 | 197 | 7.0 | 9.0 | 0.00 | 0.00 | 0.00 | 45 | 972.5 |
| 20260508090052 | 76 | 187 | 8.0 | 8.0 | 0.00 | 0.00 | 0.00 | 47 | 972.7 |
| 20260508085552 | 76 | 214 | 10.0 | 13.0 | 0.00 | 0.00 | 0.00 | 48 | 972.7 |
| 20260508085052 | 75 | 202 | 7.0 | 8.0 | 0.00 | 0.00 | 0.00 | 55 | 972.6 |
| 20260508084552 | 76 | 193 | 8.0 | 9.0 | 0.00 | 0.00 | 0.00 | 52 | 972.6 |
| 20260508084052 | 75 | 197 | 8.0 | 8.0 | 0.00 | 0.00 | 0.00 | 52 | 972.6 |
| 20260508083553 | 75 | 196 | 6.0 | 8.0 | 0.00 | 0.00 | 0.00 | 55 | 972.6 |
| 20260508083053 | 76 | 180 | 9.0 | 10.0 | 0.00 | 0.00 | 0.00 | 56 | 972.6 |
| 20260508082553 | 77 | 180 | 9.0 | 10.0 | 0.00 | 0.00 | 0.00 | 51 | 972.8 |
| 20260508082053 | 77 | 181 | 8.0 | 9.0 | 0.00 | 0.00 | 0.00 | 54 | 972.8 |
| 20260508081553 | 77 | 202 | 9.0 | 8.0 | 0.00 | 0.00 | 0.00 | 54 | 972.8 |
| 20260508081052 | 77 | 217 | 7.0 | 10.0 | 0.00 | 0.00 | 0.00 | 54 | 972.8 |
| 20260508080552 | 77 | 216 | 9.0 | 10.0 | 0.00 | 0.00 | 0.00 | 60 | 972.8 |
| 20260508080052 | 78 | 221 | 8.0 | 9.0 | 0.00 | 0.00 | 0.00 | 57 | 972.9 |
| 20260508075552 | 78 | 202 | 9.0 | 10.0 | 0.00 | 0.00 | 0.00 | 59 | 972.9 |
| 20260508075051 | 78 | 191 | 8.0 | 10.0 | 0.00 | 0.00 | 0.00 | 57 | 972.9 |
| 20260508074553 | 77 | 202 | 8.0 | 10.0 | 0.00 | 0.00 | 0.00 | 62 | 972.9 |
| 20260508074053 | 77 | 255 | 3.0 | 6.0 | 0.00 | 0.00 | 0.00 | 64 | 972.9 |
| 20260508073553 | 77 | 134 | 7.0 | 8.0 | 0.00 | 0.00 | 0.00 | 63 | 972.9 |
| 20260508073053 | 78 | 245 | 7.0 | 9.0 | 0.00 | 0.00 | 0.00 | 61 | 972.9 |
| 20260508072552 | 79 | 289 | 7.0 | 10.0 | 0.00 | 0.00 | 0.00 | 61 | 972.7 |
| 20260508072052 | 80 | 280 | 5.0 | 8.0 | 0.00 | 0.00 | 0.00 | 57 | 972.7 |
| 20260508071552 | 79 | 311 | 2.0 | 2.0 | 0.00 | 0.00 | 0.00 | 59 | 972.8 |
| 20260508071052 | 79 | 287 | 2.0 | 5.0 | 0.00 | 0.00 | 0.00 | 59 | 973.1 |
| 20260508070552 | 79 | 187 | 5.0 | 6.0 | 0.00 | 0.00 | 0.00 | 61 | 973.1 |
| 20260508070051 | 80 | 210 | 6.0 | 8.0 | 0.00 | 0.00 | 0.00 | 60 | 973.5 |
| 20260508065553 | 80 | 236 | 5.0 | 7.0 | 0.00 | 0.00 | 0.00 | 59 | 973.5 |
| 20260508065053 | 80 | 260 | 6.0 | 8.0 | 0.00 | 0.00 | 0.00 | 60 | 973.6 |
| 20260508064553 | 80 | 242 | 7.0 | 8.0 | 0.00 | 0.00 | 0.00 | 60 | 973.6 |
| 20260508064053 | 80 | 202 | 5.0 | 3.0 | 0.00 | 0.00 | 0.00 | 60 | 973.6 |
| 20260508063552 | 80 | 236 | 3.0 | 3.0 | 0.00 | 0.00 | 0.00 | 59 | 973.7 |
| 20260508063052 | 80 | 223 | 5.0 | 5.0 | 0.00 | 0.00 | 0.00 | 60 | 973.7 |
| 20260508062552 | 80 | 259 | 6.0 | 6.0 | 0.00 | 0.00 | 0.00 | 60 | 973.8 |
| 20260508062052 | 80 | 287 | 7.0 | 8.0 | 0.00 | 0.00 | 0.00 | 59 | 973.8 |
| 20260508061552 | 81 | 239 | 5.0 | 6.0 | 0.00 | 0.00 | 0.00 | 58 | 973.8 |
| 20260508061051 | 81 | 244 | 6.0 | 8.0 | 0.00 | 0.00 | 0.00 | 57 | 973.9 |
| 20260508060553 | 80 | 204 | 5.0 | 6.0 | 0.00 | 0.00 | 0.00 | 60 | 973.9 |
| 20260508060053 | 79 | 259 | 5.0 | 6.0 | 0.00 | 0.00 | 0.00 | 61 | 974.2 |
| 20260508055553 | 79 | 145 | 2.0 | 5.0 | 0.00 | 0.00 | 0.00 | 60 | 974.2 |
| 20260508055053 | 79 | 270 | 5.0 | 5.0 | 0.00 | 0.00 | 0.00 | 60 | 974.6 |
| 20260508054553 | 79 | 131 | 6.0 | 6.0 | 0.00 | 0.00 | 0.00 | 59 | 974.6 |
| 20260508054052 | 80 | 210 | 3.0 | 6.0 | 0.00 | 0.00 | 0.00 | 58 | 974.6 |
| 20260508053552 | 80 | 270 | 5.0 | 9.0 | 0.00 | 0.00 | 0.00 | 58 | 974.7 |
| 20260508053052 | 79 | 248 | 5.0 | 5.0 | 0.00 | 0.00 | 0.00 | 60 | 974.7 |
| 20260508052552 | 80 | 256 | 5.0 | 6.0 | 0.00 | 0.00 | 0.00 | 58 | 974.6 |
| 20260508052051 | 81 | 221 | 6.0 | 6.0 | 0.00 | 0.00 | 0.00 | 54 | 974.6 |
| 20260508051553 | 82 | 283 | 3.0 | 7.0 | 0.00 | 0.00 | 0.00 | 54 | 974.6 |
| 20260508051053 | 81 | 323 | 5.0 | 6.0 | 0.00 | 0.00 | 0.00 | 55 | 974.6 |
| 20260508050553 | 80 | 190 | 2.0 | 6.0 | 0.00 | 0.00 | 0.00 | 54 | 974.6 |
| 20260508050053 | 80 | 188 | 7.0 | 6.0 | 0.00 | 0.00 | 0.00 | 54 | 974.9 |
| 20260508045553 | 81 | 219 | 1.0 | 1.0 | 0.00 | 0.00 | 0.00 | 52 | 974.9 |
| 20260508045052 | 80 | 124 | 2.0 | 1.0 | 0.00 | 0.00 | 0.00 | 54 | 975.2 |
| 20260508044552 | 79 | 82 | 3.0 | 5.0 | 0.00 | 0.00 | 0.00 | 55 | 975.2 |
| 20260508044052 | 79 | 104 | 3.0 | 2.0 | 0.00 | 0.00 | 0.00 | 54 | 975.2 |
| 20260508043552 | 79 | 193 | 2.0 | 2.0 | 0.00 | 0.00 | 0.00 | 56 | 975.0 |
| 20260508043052 | 80 | 109 | 3.0 | 5.0 | 0.00 | 0.00 | 0.00 | 55 | 975.0 |
| 20260508042551 | 80 | 62 | 5.0 | 5.0 | 0.00 | 0.00 | 0.00 | 54 | 975.3 |
| 20260508042053 | 80 | 331 | 2.0 | 3.0 | 0.00 | 0.00 | 0.00 | 54 | 975.3 |
| 20260508041553 | 81 | 256 | 2.0 | 3.0 | 0.00 | 0.00 | 0.00 | 54 | 975.3 |
| 20260508041053 | 80 | 202 | 2.0 | 2.0 | 0.00 | 0.00 | 0.00 | 55 | 975.8 |
| 20260508040553 | 79 | 3 | 2.0 | 5.0 | 0.00 | 0.00 | 0.00 | 56 | 975.8 |
| 20260508040052 | 79 | 82 | 2.0 | 3.0 | 0.00 | 0.00 | 0.00 | 56 | 975.9 |
| 20260508035552 | 79 | 87 | 5.0 | 6.0 | 0.00 | 0.00 | 0.00 | 56 | 975.9 |
| 20260508035052 | 80 | 0 | 3.0 | 3.0 | 0.00 | 0.00 | 0.00 | 55 | 975.8 |
| 20260508034552 | 79 | 290 | 3.0 | 5.0 | 0.00 | 0.00 | 0.00 | 55 | 975.8 |
| 20260508034052 | 79 | 19 | 3.0 | 5.0 | 0.00 | 0.00 | 0.00 | 55 | 975.8 |
| 20260508033553 | 80 | 346 | 3.0 | 3.0 | 0.00 | 0.00 | 0.00 | 54 | 976.3 |
| 20260508033053 | 80 | 357 | 3.0 | 3.0 | 0.00 | 0.00 | 0.00 | 52 | 976.3 |
| 20260508032553 | 80 | 281 | 5.0 | 6.0 | 0.00 | 0.00 | 0.00 | 55 | 976.6 |
| 20260508032053 | 78 | 163 | 3.0 | 5.0 | 0.00 | 0.00 | 0.00 | 55 | 976.6 |
| 20260508031553 | 78 | 206 | 3.0 | 3.0 | 0.00 | 0.00 | 0.00 | 55 | 976.6 |
| 20260508031052 | 78 | 191 | 3.0 | 3.0 | 0.00 | 0.00 | 0.00 | 56 | 976.8 |
| 20260508030552 | 78 | 296 | 3.0 | 3.0 | 0.00 | 0.00 | 0.00 | 54 | 976.8 |
| 20260508030052 | 78 | 233 | 3.0 | 2.0 | 0.00 | 0.00 | 0.00 | 55 | 976.8 |
| 20260508025552 | 78 | 149 | 5.0 | 5.0 | 0.00 | 0.00 | 0.00 | 56 | 976.8 |
| 20260508025051 | 77 | 202 | 5.0 | 5.0 | 0.00 | 0.00 | 0.00 | 58 | 977.3 |
| 20260508024553 | 77 | 203 | 3.0 | 5.0 | 0.00 | 0.00 | 0.00 | 56 | 977.3 |
| 20260508024053 | 77 | 189 | 0.0 | 0.0 | 0.00 | 0.00 | 0.00 | 57 | 977.3 |
| 20260508023553 | 77 | 235 | 3.0 | 3.0 | 0.00 | 0.00 | 0.00 | 57 | 977.6 |
| 20260508023053 | 79 | 180 | 3.0 | 6.0 | 0.00 | 0.00 | 0.00 | 53 | 977.6 |
| 20260508022553 | 78 | 265 | 2.0 | 5.0 | 0.00 | 0.00 | 0.00 | 53 | 977.9 |
| 20260508022052 | 79 | 339 | 3.0 | 3.0 | 0.00 | 0.00 | 0.00 | 53 | 977.9 |
| 20260508021552 | 80 | 314 | 3.0 | 5.0 | 0.00 | 0.00 | 0.00 | 52 | 977.9 |
| 20260508021052 | 78 | 294 | 2.0 | 5.0 | 0.00 | 0.00 | 0.00 | 54 | 978.2 |
| 20260508020552 | 77 | 292 | 3.0 | 5.0 | 0.00 | 0.00 | 0.00 | 57 | 978.2 |
| 20260508020052 | 76 | 347 | 3.0 | 5.0 | 0.00 | 0.00 | 0.00 | 59 | 978.3 |
| 20260508015552 | 76 | 270 | 6.0 | 7.0 | 0.00 | 0.00 | 0.00 | 58 | 978.3 |
| 20260508015053 | 76 | 169 | 2.0 | 6.0 | 0.00 | 0.00 | 0.00 | 61 | 978.4 |
| 20260508014553 | 78 | 192 | 6.0 | 6.0 | 0.00 | 0.00 | 0.00 | 57 | 978.4 |
| 20260508014052 | 76 | 122 | 2.0 | 3.0 | 0.00 | 0.00 | 0.00 | 60 | 978.4 |
| 20260508013552 | 76 | 170 | 3.0 | 6.0 | 0.00 | 0.00 | 0.00 | 60 | 978.4 |
| 20260508013052 | 75 | 183 | 2.0 | 2.0 | 0.00 | 0.00 | 0.00 | 62 | 978.4 |
| 20260508012551 | 75 | 123 | 3.0 | 5.0 | 0.00 | 0.00 | 0.00 | 62 | 978.5 |
| 20260508012053 | 75 | 199 | 3.0 | 6.0 | 0.00 | 0.00 | 0.00 | 63 | 978.5 |
| 20260508011553 | 74 | 192 | 3.0 | 5.0 | 0.00 | 0.00 | 0.00 | 64 | 978.5 |
| 20260508011053 | 74 | 191 | 5.0 | 6.0 | 0.00 | 0.00 | 0.00 | 65 | 978.6 |
| 20260508010553 | 74 | 198 | 3.0 | 5.0 | 0.00 | 0.00 | 0.00 | 66 | 978.6 |
| 20260508010052 | 74 | 143 | 2.0 | 3.0 | 0.00 | 0.00 | 0.00 | 66 | 978.7 |
| 20260508005552 | 74 | 123 | 1.0 | 1.0 | 0.00 | 0.00 | 0.00 | 65 | 978.7 |
| 20260508005052 | 73 | 359 | 3.0 | 3.0 | 0.00 | 0.00 | 0.00 | 65 | 978.8 |
| 20260508004552 | 73 | 9 | 3.0 | 5.0 | 0.00 | 0.00 | 0.00 | 64 | 978.8 |
| 20260508004052 | 73 | 276 | 2.0 | 3.0 | 0.00 | 0.00 | 0.00 | 64 | 978.8 |
| 20260508003553 | 74 | 78 | 2.0 | 3.0 | 0.00 | 0.00 | 0.00 | 64 | 979.4 |
| 20260508003053 | 75 | 183 | 3.0 | 3.0 | 0.00 | 0.00 | 0.00 | 63 | 979.4 |
| 20260508002553 | 75 | 206 | 5.0 | 6.0 | 0.00 | 0.00 | 0.00 | 64 | 979.5 |
| 20260508002053 | 75 | 214 | 2.0 | 2.0 | 0.00 | 0.00 | 0.00 | 65 | 979.5 |
| 20260508001553 | 73 | 197 | 2.0 | 3.0 | 0.00 | 0.00 | 0.00 | 68 | 979.5 |
| 20260508001053 | 72 | 178 | 2.0 | 2.0 | 0.00 | 0.00 | 0.00 | 71 | 979.7 |
| 20260508000552 | 71 | 130 | 2.0 | 2.0 | 0.00 | 0.00 | 0.00 | 72 | 979.7 |
| 20260508000052 | 72 | 194 | 2.0 | 3.0 | 0.00 | 0.00 | 0.00 | 70 | 979.7 |
| 20260507235552 | 73 | 74 | 3.0 | 5.0 | 0.00 | 0.00 | 0.00 | 69 | 979.7 |
| 20260507235051 | 70 | 22 | 2.0 | 3.0 | 0.00 | 0.00 | 0.00 | 73 | 980.1 |
| 20260507234553 | 70 | 147 | 2.0 | 2.0 | 0.00 | 0.00 | 0.00 | 75 | 980.1 |
| 20260507234053 | 70 | 106 | 2.0 | 3.0 | 0.00 | 0.00 | 0.00 | 76 | 980.1 |
| 20260507233553 | 70 | 202 | 2.0 | 2.0 | 0.00 | 0.00 | 0.00 | 75 | 980.0 |
| 20260507233053 | 70 | 112 | 2.0 | 3.0 | 0.00 | 0.00 | 0.00 | 76 | 980.0 |
| 20260507232552 | 69 | 200 | 1.0 | 2.0 | 0.00 | 0.00 | 0.00 | 76 | 980.1 |
| 20260507232052 | 69 | 224 | 2.0 | 2.0 | 0.00 | 0.00 | 0.00 | 76 | 980.1 |
| 20260507231552 | 70 | 174 | 1.0 | 1.0 | 0.00 | 0.00 | 0.00 | 76 | 980.1 |
| 20260507231052 | 69 | 152 | 2.0 | 2.0 | 0.00 | 0.00 | 0.00 | 78 | 980.4 |
| 20260507230552 | 68 | 247 | 1.0 | 2.0 | 0.00 | 0.00 | 0.00 | 78 | 980.4 |
| 20260507230052 | 69 | 156 | 3.0 | 5.0 | 0.00 | 0.00 | 0.00 | 77 | 980.4 |
| 20260507225551 | 68 | 100 | 2.0 | 2.0 | 0.00 | 0.00 | 0.00 | 78 | 980.4 |
| 20260507225053 | 69 | 125 | 2.0 | 3.0 | 0.00 | 0.00 | 0.00 | 78 | 980.6 |
| 20260507224553 | 68 | 153 | 2.0 | 2.0 | 0.00 | 0.00 | 0.00 | 80 | 980.6 |
| 20260507224053 | 67 | 259 | 2.0 | 3.0 | 0.00 | 0.00 | 0.00 | 82 | 980.6 |
| 20260507223553 | 67 | 180 | 2.0 | 2.0 | 0.00 | 0.00 | 0.00 | 82 | 980.3 |
| 20260507223053 | 67 | 260 | 1.0 | 1.0 | 0.00 | 0.00 | 0.00 | 82 | 980.3 |
| 20260507222553 | 67 | 240 | 1.0 | 1.0 | 0.00 | 0.00 | 0.00 | 82 | 980.5 |
| 20260507222053 | 67 | 160 | 2.0 | 1.0 | 0.00 | 0.00 | 0.00 | 82 | 980.5 |
| 20260507221553 | 67 | 195 | 2.0 | 2.0 | 0.00 | 0.00 | 0.00 | 82 | 980.5 |
| 20260507221052 | 67 | 282 | 1.0 | 1.0 | 0.00 | 0.00 | 0.00 | 83 | 980.5 |
| 20260507220552 | 67 | 234 | 2.0 | 3.0 | 0.00 | 0.00 | 0.00 | 82 | 980.5 |
| 20260507220052 | 66 | 270 | 2.0 | 2.0 | 0.00 | 0.00 | 0.00 | 83 | 980.6 |
| 20260507215552 | 67 | 294 | 2.0 | 3.0 | 0.00 | 0.00 | 0.00 | 81 | 980.6 |
| 20260507215052 | 67 | 259 | 2.0 | 2.0 | 0.00 | 0.00 | 0.00 | 81 | 980.6 |
| 20260507214552 | 66 | 279 | 2.0 | 2.0 | 0.00 | 0.00 | 0.00 | 82 | 980.6 |
| 20260507214052 | 66 | 233 | 0.0 | 0.0 | 0.00 | 0.00 | 0.00 | 83 | 980.6 |
| 20260507213553 | 66 | 261 | 3.0 | 3.0 | 0.00 | 0.00 | 0.00 | 83 | 980.6 |
| 20260507213053 | 65 | 285 | 2.0 | 2.0 | 0.00 | 0.00 | 0.00 | 83 | 980.6 |
| 20260507212553 | 65 | 285 | 2.0 | 2.0 | 0.00 | 0.00 | 0.00 | 83 | 980.5 |
| 20260507212052 | 65 | 290 | 2.0 | 2.0 | 0.00 | 0.00 | 0.00 | 84 | 980.5 |
| 20260507211552 | 64 | 257 | 0.0 | 0.0 | 0.00 | 0.00 | 0.00 | 85 | 980.5 |
| 20260507211052 | 64 | 247 | 0.0 | 1.0 | 0.00 | 0.00 | 0.00 | 85 | 980.7 |
| 20260507210552 | 64 | 216 | 1.0 | 1.0 | 0.00 | 0.00 | 0.00 | 86 | 980.7 |
| 20260507210052 | 64 | 281 | 1.0 | 1.0 | 0.00 | 0.00 | 0.00 | 87 | 980.6 |
| 20260507205552 | 64 | 284 | 0.0 | 1.0 | 0.00 | 0.00 | 0.00 | 88 | 980.6 |
| 20260507205053 | 64 | 243 | 1.0 | 1.0 | 0.00 | 0.00 | 0.00 | 88 | 980.6 |
| 20260507204553 | 64 | 192 | 1.0 | 1.0 | 0.00 | 0.00 | 0.00 | 88 | 980.6 |
| 20260507204053 | 64 | 246 | 1.0 | 1.0 | 0.00 | 0.00 | 0.00 | 90 | 980.6 |
| 20260507203553 | 64 | 212 | 1.0 | 2.0 | 0.00 | 0.00 | 0.00 | 90 | 980.6 |
| 20260507203053 | 64 | 193 | 2.0 | 2.0 | 0.00 | 0.00 | 0.00 | 90 | 980.6 |
| 20260507202552 | 64 | 197 | 1.0 | 1.0 | 0.00 | 0.00 | 0.00 | 90 | 980.6 |
| 20260507202052 | 64 | 198 | 0.0 | 0.0 | 0.00 | 0.00 | 0.00 | 90 | 980.6 |
| 20260507201552 | 64 | 202 | 0.0 | 0.0 | 0.00 | 0.00 | 0.00 | 90 | 980.6 |
| 20260507201052 | 64 | 108 | 0.0 | 0.0 | 0.00 | 0.00 | 0.00 | 90 | 980.5 |
| 20260507200551 | 64 | 167 | 0.0 | 0.0 | 0.00 | 0.00 | 0.00 | 90 | 980.5 |
| 20260507200053 | 64 | 95 | 0.0 | 0.0 | 0.00 | 0.00 | 0.00 | 90 | 980.6 |
| 20260507195553 | 64 | 110 | 1.0 | 1.0 | 0.00 | 0.00 | 0.00 | 89 | 980.6 |
| 20260507195053 | 64 | 180 | 0.0 | 0.0 | 0.00 | 0.00 | 0.00 | 89 | 980.7 |
| 20260507194553 | 64 | 150 | 1.0 | 1.0 | 0.00 | 0.00 | 0.00 | 89 | 980.7 |
| 20260507194053 | 64 | 90 | 0.0 | 0.0 | 0.00 | 0.00 | 0.00 | 89 | 980.7 |
| 20260507193552 | 64 | 234 | 0.0 | 0.0 | 0.00 | 0.00 | 0.00 | 89 | 980.6 |
| 20260507193052 | 64 | 149 | 1.0 | 2.0 | 0.00 | 0.00 | 0.00 | 89 | 980.6 |
| 20260507192552 | 64 | 151 | 2.0 | 2.0 | 0.00 | 0.00 | 0.00 | 88 | 980.7 |
| 20260507192052 | 64 | 125 | 0.0 | 0.0 | 0.00 | 0.00 | 0.00 | 88 | 980.7 |
| 20260507191552 | 64 | 114 | 1.0 | 1.0 | 0.00 | 0.00 | 0.00 | 88 | 980.7 |
| 20260507191051 | 64 | 202 | 0.0 | 0.0 | 0.00 | 0.00 | 0.00 | 88 | 980.7 |
| 20260507190553 | 64 | 202 | 0.0 | 0.0 | 0.00 | 0.00 | 0.00 | 87 | 980.7 |
| 20260507190053 | 64 | 158 | 0.0 | 0.0 | 0.00 | 0.00 | 0.00 | 86 | 980.5 |
| 20260507185553 | 64 | 140 | 0.0 | 0.0 | 0.00 | 0.00 | 0.00 | 86 | 980.5 |
| 20260507185052 | 64 | 136 | 1.0 | 1.0 | 0.00 | 0.00 | 0.00 | 85 | 980.6 |
| 20260507184552 | 64 | 165 | 0.0 | 1.0 | 0.00 | 0.00 | 0.00 | 85 | 980.6 |
| 20260507184052 | 64 | 241 | 0.0 | 0.0 | 0.00 | 0.00 | 0.00 | 85 | 980.6 |
| 20260507183552 | 64 | 162 | 0.0 | 0.0 | 0.00 | 0.00 | 0.00 | 85 | 980.7 |
| 20260507183052 | 64 | 202 | 1.0 | 1.0 | 0.00 | 0.00 | 0.00 | 86 | 980.7 |
| 20260507182552 | 64 | 220 | 0.0 | 2.0 | 0.00 | 0.00 | 0.00 | 86 | 980.7 |
| 20260507182053 | 64 | 269 | 0.0 | 1.0 | 0.00 | 0.00 | 0.00 | 86 | 980.7 |
| 20260507181553 | 64 | 8 | 0.0 | 0.0 | 0.00 | 0.00 | 0.00 | 85 | 980.7 |
| 20260507181053 | 64 | 246 | 1.0 | 1.0 | 0.00 | 0.00 | 0.00 | 85 | 980.7 |
| 20260507180553 | 64 | 205 | 0.0 | 0.0 | 0.00 | 0.00 | 0.00 | 85 | 980.7 |
| 20260507180052 | 64 | 188 | 2.0 | 2.0 | 0.00 | 0.00 | 0.00 | 85 | 980.8 |
| 20260507175552 | 64 | 204 | 0.0 | 0.0 | 0.00 | 0.00 | 0.00 | 85 | 980.8 |